Weather History for KAUW - November, 2010

Change the Weather History Date:

Wednesday, November 3, 2010

  Actual Average Record
Temperature  
Mean Temperature 46 °F 39 °F  
Max Temperature 55 °F 47 °F 72 °F (2008)
Min Temperature 36 °F 31 °F -1 °F (1951)
Degree Days  
Heating Degree Days 19 26  
Month to date heating degree days 76 77  
Since 1 July heating degree days 846 961  
Cooling Degree Days 0 0  
Month to date cooling degree days 0 0  
Year to date cooling degree days 560 407  
Moisture  
Dew Point 32 °F    
Average Humidity 59    
Maximum Humidity 76    
Minimum Humidity 41    
Precipitation  
Precipitation 0.01 in 0.08 in 1.02 in (1987)
Month to date precipitation 0.02 0.22  
Year to date precipitation 34.06 29.27  
Snow  
Snow 0.00 in 0.10 in 1.80 in (1951)
Month to date snowfall 0.0 0.3  
Since 1 July snowfall T 1.7  
Snow Depth 0.00 in    
Sea Level Pressure  
Sea Level Pressure 29.93 in    
Wind  
Wind Speed 10 mph (West)    
Max Wind Speed 24 mph    
Max Gust Speed 29 mph    
Visibility 10 miles    
Events Rain    
T = Trace of Precipitation, MM = Missing Value Source: NWS Daily Summary

Daily Weather History Graph

Daily Weather History Graph

Search for Another Location

Airport or City:

Trip Planner

Search our weather history database for the weather conditions in past years. The results will help you decide how hot, cold, wet, or windy it might be!

Date:

Astronomy

Nov. 03, 2010 Rise Set
Actual Time 7:39 AM CDT 5:43 PM CDT
Civil Twilight 7:08 AM CDT 6:14 PM CDT
Nautical Twilight 6:34 AM CDT 6:49 PM CDT
Astronomical Twilight 5:59 AM CDT 7:23 PM CDT
Moon 4:32 AM CDT (11/3) 3:58 PM CDT (11/3)
Length of Visible Light 11h 05m
Length of Day
10h 04m
Waning Crescent, 9% of the Moon is Illuminated
Nov 3
Waning Crescent
Nov 5
New
Nov 13
First Quarter
Nov 21
Full
Nov 28
Last Quarter

Hourly Weather History & Observations

Time (CDT) Temp. Windchill Dew Point Humidity Pressure Visibility Wind Dir Wind Speed Gust Speed Precip Events Conditions
12:54 AM 42.1 °F 37.1 °F 32.0 °F 67% 30.12 in 10.0 mi SSW 8.1 mph - 0.00 in Rain Light Rain
1:54 AM 41.0 °F 34.7 °F 33.1 °F 73% 30.08 in 10.0 mi SSW 10.4 mph - 0.01 in Rain Light Rain
2:54 AM 41.0 °F 33.9 °F 32.0 °F 70% 30.04 in 10.0 mi SSW 12.7 mph - 0.00 in   Overcast
3:54 AM 39.9 °F 32.9 °F 30.9 °F 70% 30.01 in 10.0 mi SSW 11.5 mph - N/A   Scattered Clouds
4:54 AM 39.0 °F 33.4 °F 30.9 °F 73% 30.00 in 10.0 mi SSW 8.1 mph - N/A   Clear
5:54 AM 37.0 °F 34.5 °F 30.9 °F 79% 29.99 in 10.0 mi SSW 3.5 mph - N/A   Clear
6:44 AM 37.4 °F 33.8 °F 30.2 °F 75% 29.94 in 10.0 mi South 4.6 mph - N/A   Mostly Cloudy
6:54 AM 37.9 °F 34.4 °F 30.9 °F 76% 29.97 in 10.0 mi South 4.6 mph - N/A   Overcast
7:37 AM 37.4 °F 31.4 °F 30.2 °F 75% 29.92 in 10.0 mi SW 8.1 mph - N/A   Partly Cloudy
7:54 AM 37.9 °F 33.5 °F 30.9 °F 76% 29.96 in 10.0 mi SSW 5.8 mph - N/A   Clear
8:54 AM 39.9 °F 36.7 °F 32.0 °F 73% 29.96 in 10.0 mi West 4.6 mph - N/A   Clear
9:54 AM 43.0 °F 38.2 °F 34.0 °F 71% 29.95 in 10.0 mi WNW 8.1 mph - N/A   Clear
10:54 AM 46.9 °F - 37.0 °F 68% 29.93 in 10.0 mi WNW 8.1 mph - N/A   Clear
11:54 AM 52.0 °F - 36.0 °F 54% 29.90 in 10.0 mi West 8.1 mph - N/A   Clear
12:54 PM 54.0 °F - 36.0 °F 51% 29.86 in 10.0 mi West 18.4 mph 28.8 mph N/A   Clear
1:54 PM 54.0 °F - 35.1 °F 49% 29.84 in 10.0 mi West 19.6 mph 26.5 mph N/A   Clear
2:54 PM 53.1 °F - 34.0 °F 48% 29.83 in 10.0 mi WNW 17.3 mph 23.0 mph N/A   Mostly Cloudy
3:54 PM 53.1 °F - 30.9 °F 43% 29.83 in 10.0 mi NW 17.3 mph 24.2 mph N/A   Mostly Cloudy
4:54 PM 51.1 °F - 30.0 °F 44% 29.85 in 10.0 mi NW 11.5 mph 24.2 mph N/A   Mostly Cloudy
5:54 PM 50.0 °F - 30.9 °F 48% 29.87 in 10.0 mi NW 9.2 mph - N/A   Overcast
6:54 PM 48.9 °F - 30.9 °F 50% 29.88 in 10.0 mi NW 12.7 mph 21.9 mph N/A   Mostly Cloudy
7:54 PM 48.0 °F - 30.9 °F 52% 29.89 in 10.0 mi NW 11.5 mph - N/A   Overcast
8:54 PM 46.0 °F 41.0 °F 30.9 °F 56% 29.89 in 10.0 mi NW 10.4 mph - N/A   Clear
9:54 PM 44.1 °F 38.1 °F 30.9 °F 60% 29.90 in 10.0 mi NW 11.5 mph 16.1 mph N/A   Clear
10:54 PM 44.1 °F 39.5 °F 30.9 °F 60% 29.90 in 10.0 mi NNW 8.1 mph 16.1 mph N/A   Clear
11:54 PM 43.0 °F 37.7 °F 30.9 °F 62% 29.90 in 10.0 mi NNW 9.2 mph - N/A   Clear